Weather History for Los Angeles, CA

Change the Weather History Date:

Wednesday, August 7, 2013

  Actual Average Record
Temperature  
Mean Temperature 67 °F 69 °F  
Max Temperature 71 °F 75 °F 89 °F (1983)
Min Temperature 62 °F 64 °F 58 °F (1948)
Degree Days  
Heating Degree Days 0 0  
Month to date heating degree days 0 0  
Since 1 June heating degree days 0 27  
Since 1 July heating degree days 0 2  
Cooling Degree Days 2 5  
Month to date cooling degree days 15 29  
Year to date cooling degree days 322 230  
Since 1 June cooling degree days 241 190  
Growing Degree Days 16 (Base 50)    
Moisture  
Dew Point 58 °F    
Average Humidity 75    
Maximum Humidity 84    
Minimum Humidity 66    
Precipitation  
Precipitation 0.00 in 0.00 in 0.04 in (1983)
Month to date precipitation T 0.01  
Year to date precipitation 2.64 8.85  
Since 1 July precipitation 0.03 0.04  
Sea Level Pressure  
Sea Level Pressure 30.03 in    
Wind  
Wind Speed 7 mph (WSW)    
Max Wind Speed 15 mph    
Max Gust Speed 16 mph    
Visibility 9 miles    
Events Fog    
T = Trace of Precipitation, MM = Missing Value Source: NWS Daily Summary

Daily Weather History Graph

Daily Weather History Graph

Search for Another Location

Airport:

Trip Planner

Search our weather history database for the weather conditions in past years. The results will help you decide how hot, cold, wet, or windy it might be!

Date:

Astronomy

Aug. 07, 2013 Rise Set
Actual Time 6:09 AM PDT 7:48 PM PDT
Civil Twilight 5:42 AM PDT 8:15 PM PDT
Nautical Twilight 5:10 AM PDT 8:47 PM PDT
Astronomical Twilight 4:36 AM PDT 9:21 PM PDT
Moon 6:57 AM PDT (8/7) 8:04 PM PDT (8/7)
Length of Visible Light 14h 32m
Length of Day
13h 38m
New Moon, 1% of the Moon is Illuminated
Aug 7
New Moon
Aug 14
First Quarter
Aug 20
Full
Aug 28
Last Quarter
Sep 5
New

Hourly Weather History & Observations

Time (PDT) Temp. Dew Point Humidity Pressure Visibility Wind Dir Wind Speed Gust Speed Precip Events Conditions
12:53 AM 63.0 °F 57.9 °F 84% 30.03 in 10.0 mi WSW 6.9 mph - N/A   Mostly Cloudy
1:53 AM 63.0 °F 57.9 °F 84% 30.03 in 10.0 mi South 5.8 mph - N/A   Overcast
2:53 AM 62.1 °F 57.0 °F 84% 30.03 in 10.0 mi WSW 8.1 mph - N/A   Mostly Cloudy
3:53 AM 63.0 °F 57.9 °F 84% 30.02 in 10.0 mi South 3.5 mph - N/A   Mostly Cloudy
4:53 AM 63.0 °F 57.9 °F 84% 30.01 in 10.0 mi Calm Calm - N/A   Overcast
5:53 AM 63.0 °F 57.0 °F 81% 30.02 in 10.0 mi Calm Calm - N/A   Overcast
6:47 AM 64.4 °F 57.2 °F 77% 30.04 in 7.0 mi Calm Calm - N/A Fog Patches of Fog
6:53 AM 64.4 °F 57.2 °F 77% 30.04 in 7.0 mi Calm Calm - N/A Fog Patches of Fog
7:53 AM 64.4 °F 57.2 °F 77% 30.06 in 6.0 mi Calm Calm - N/A Fog Patches of Fog
9:53 AM 66.9 °F 57.0 °F 70% 30.08 in 6.0 mi Variable 4.6 mph - N/A   Mostly Cloudy
10:17 AM 68.0 °F 57.2 °F 68% 30.08 in 7.0 mi WSW 3.5 mph - N/A   Scattered Clouds
10:53 AM 69.1 °F 57.0 °F 65% 30.08 in 7.0 mi SW 8.1 mph - N/A   Scattered Clouds
11:53 AM 70.0 °F 57.0 °F 63% 30.07 in 8.0 mi WSW 10.4 mph 16.1 mph N/A   Scattered Clouds
12:53 PM 70.0 °F 57.9 °F 65% 30.06 in 9.0 mi WSW 10.4 mph - N/A   Scattered Clouds
1:53 PM 69.1 °F 57.9 °F 68% 30.05 in 9.0 mi WSW 11.5 mph - N/A   Scattered Clouds
2:53 PM 70.0 °F 57.0 °F 63% 30.03 in 10.0 mi WSW 10.4 mph - N/A   Scattered Clouds
3:53 PM 69.1 °F 57.9 °F 68% 30.01 in 10.0 mi West 10.4 mph - N/A   Partly Cloudy
4:53 PM 70.0 °F 59.0 °F 68% 30.01 in 10.0 mi West 12.7 mph - N/A   Partly Cloudy
5:53 PM 66.9 °F 57.9 °F 73% 29.99 in 10.0 mi West 15.0 mph - N/A   Scattered Clouds
6:53 PM 66.0 °F 57.9 °F 75% 29.99 in 10.0 mi WSW 13.8 mph - N/A   Partly Cloudy
7:53 PM 64.0 °F 57.9 °F 80% 30.00 in 10.0 mi West 9.2 mph - N/A   Partly Cloudy
8:53 PM 64.0 °F 57.9 °F 80% 30.00 in 10.0 mi West 6.9 mph - N/A   Partly Cloudy
9:53 PM 64.0 °F 57.9 °F 80% 30.01 in 10.0 mi West 5.8 mph - N/A   Partly Cloudy
10:53 PM 64.0 °F 59.0 °F 84% 30.00 in 10.0 mi WSW 5.8 mph - N/A   Partly Cloudy
11:53 PM 64.0 °F 59.0 °F 84% 29.99 in 10.0 mi SW 5.8 mph - N/A   Partly Cloudy